Manston, United Kingdom

1:07 AM GMT on March 24, 2017 (GMT +0000)
Manston

Weather History for EGMH - March, 2014

Change the Weather History Date:

Tuesday, March 4, 2014

  Actual Average Record
Temperature  
Mean Temperature 45 °F -  
Max Temperature 51 °F 50 °F - ()
Min Temperature 39 °F 37 °F - ()
Degree Days  
Heating Degree Days 20    
Moisture  
Dew Point 38 °F    
Average Humidity 76    
Maximum Humidity 100    
Minimum Humidity 46    
Precipitation  
Precipitation 0.00 in 0.05 in - ()
Sea Level Pressure  
Sea Level Pressure 29.62 in    
Wind  
Wind Speed 8 mph ()    
Max Wind Speed 15 mph    
Max Gust Speed -    
Visibility 8.9 miles    
Events Rain    
T = Trace of Precipitation, MM = Missing Value Source: Averaged Metar Reports

Daily Weather History Graph

Daily Weather History Graph

Search for Another Location

Airport or City:

Trip Planner

Search our weather history database for the weather conditions in past years. The results will help you decide how hot, cold, wet, or windy it might be!

Date:

Astronomy

Mar. 04, 2014 Rise Set
Actual Time 6:33 AM GMT 5:40 PM GMT
Civil Twilight 6:00 AM GMT 6:13 PM GMT
Nautical Twilight 5:21 AM GMT 6:51 PM GMT
Astronomical Twilight 4:42 AM GMT 7:30 PM GMT
Moon 7:43 AM GMT (3/4) 10:01 PM GMT (3/4)
Length of Visible Light 12h 13m
Length of Day
11h 06m
Waxing Crescent, 13% of the Moon is Illuminated
Mar 4
Waxing Crescent
Mar 8
First Quarter
Mar 16
Full
Mar 24
Last Quarter
Mar 30
New

Hourly Weather History & Observations

Time (GMT) Temp. Windchill Dew Point Humidity Pressure Visibility Wind Dir Wind Speed Gust Speed Precip Events Conditions
12:00 AM 43 °F - 40 °F 85% 29.38 in 16 mi North 8.1 mph - -   Mostly Cloudy
1:00 AM 43 °F - 40 °F 87% 29.41 in 16 mi NNW 8.1 mph - -   Scattered Clouds
2:00 AM 43 °F - 40 °F 87% 29.43 in 12 mi NNW 12.7 mph - - Rain Light Rain Showers
3:00 AM 43 °F - 40 °F 85% 29.45 in 9 mi NNW 11.5 mph - - Rain Light Rain Showers
4:00 AM 44 °F - 40 °F 79% 29.48 in 13 mi North 11.5 mph - - Rain Rain
5:00 AM 43 °F - 40 °F 85% 29.51 in 5 mi NW 10.4 mph - - Rain Rain
6:00 AM 42 °F - 39 °F 85% 29.54 in 6 mi WNW 9.2 mph - - Rain Light Drizzle
6:20 AM 41.0 °F 34.3 °F 39.2 °F 93% 29.53 in 6.2 mi WNW 11.5 mph - N/A   Mostly Cloudy
6:50 AM 39.2 °F 32.5 °F 39.2 °F 100% 29.53 in 6.2 mi WNW 10.4 mph - N/A   Partly Cloudy
7:00 AM 40 °F - 37 °F 85% 29.56 in 5 mi WNW 10.4 mph - - Rain Rain
7:20 AM 39.2 °F 32.5 °F 39.2 °F 100% 29.56 in 6.2 mi WNW 10.4 mph - N/A   Partly Cloudy
7:50 AM 39.2 °F 33.0 °F 39.2 °F 100% 29.56 in 5.6 mi West 9.2 mph - N/A   Partly Cloudy
8:00 AM 39 °F - 37 °F 88% 29.58 in 5 mi West 10.4 mph - -   Light Haze
8:20 AM 41.0 °F 34.7 °F 39.2 °F 93% 29.56 in 5.0 mi West 10.4 mph - N/A   Partly Cloudy
8:50 AM 42.8 °F 38.0 °F 39.2 °F 87% 29.59 in 6.2 mi West 8.1 mph - N/A   Partly Cloudy
9:00 AM 42 °F - 38 °F 81% 29.60 in 6 mi West 6.9 mph - -  
9:20 AM 42.8 °F 37.5 °F 41.0 °F 93% 29.59 in 6.2 mi West 9.2 mph - N/A   Partly Cloudy
9:50 AM 42.8 °F 37.0 °F 39.2 °F 87% 29.59 in 6.2 mi West 10.4 mph - N/A   Partly Cloudy
10:00 AM 43 °F - 36 °F 70% 29.62 in 9 mi West 11.5 mph - -  
10:20 AM 44.6 °F 38.8 °F 39.2 °F 81% 29.59 in - West 11.5 mph - N/A   Clear
10:50 AM 46.4 °F 40.1 °F 35.6 °F 66% 29.62 in - WNW 15.0 mph - N/A   Clear
11:00 AM 46 °F - 34 °F 51% 29.63 in 25 mi WNW 11.5 mph - -  
11:20 AM 46.4 °F 40.1 °F 37.4 °F 71% 29.62 in 6.2 mi WNW 15.0 mph - N/A   Partly Cloudy
11:50 AM 48.2 °F - 39.2 °F 71% 29.62 in 6.2 mi WNW 10.4 mph - N/A   Partly Cloudy
12:00 PM 48 °F - 36 °F 51% 29.64 in 19 mi WNW 9.2 mph - -  
12:20 PM 48.2 °F - 39.2 °F 71% 29.62 in 6.2 mi WNW 6.9 mph - N/A   Partly Cloudy
12:50 PM 50.0 °F - 41.0 °F 71% 29.62 in 6.2 mi WNW 5.8 mph - N/A   Partly Cloudy
1:00 PM 50 °F - 36 °F 46% 29.64 in 25 mi WNW 4.6 mph - -  
1:20 PM 51.8 °F - 35.6 °F 54% 29.62 in 6.2 mi WSW 4.6 mph - N/A   Partly Cloudy
1:50 PM 50.0 °F - 37.4 °F 62% 29.62 in 6.2 mi WSW 6.9 mph - N/A   Scattered Clouds
2:00 PM 51 °F - 36 °F 46% 29.65 in 22 mi WNW 5.8 mph - -   Mostly Cloudy
2:20 PM 48.2 °F - 39.2 °F 71% 29.65 in 6.2 mi NW 8.1 mph - N/A   Scattered Clouds
2:50 PM 48.2 °F - 39.2 °F 71% 29.65 in 6.2 mi NNW 4.6 mph - N/A   Mostly Cloudy
3:00 PM 47 °F - 36 °F 56% 29.66 in 19 mi NW 4.6 mph - -   Mostly Cloudy
3:20 PM 48.2 °F - 39.2 °F 71% 29.65 in 6.2 mi ENE 4.6 mph - N/A   Mostly Cloudy
3:50 PM 48.2 °F - 39.2 °F 71% 29.68 in 6.2 mi East 3.5 mph - N/A   Mostly Cloudy
4:00 PM 47 °F - 38 °F 60% 29.68 in 19 mi ESE 2.3 mph - -   Scattered Clouds
4:20 PM 48.2 °F - 39.2 °F 71% 29.68 in 6.2 mi SE 4.6 mph - N/A   Mostly Cloudy
4:50 PM 48.2 °F - 39.2 °F 71% 29.68 in 6.2 mi SSE 3.5 mph - N/A   Mostly Cloudy
5:00 PM 46 °F - 36 °F 60% 29.70 in 16 mi SSE 4.6 mph - -   Mostly Cloudy
5:20 PM 46.4 °F - 41.0 °F 81% 29.71 in 6.2 mi South 2.3 mph - N/A   Scattered Clouds
5:50 PM 46.4 °F - 41.0 °F 81% 29.71 in 6.2 mi SSW 2.3 mph - N/A   Scattered Clouds
6:00 PM 46 °F - 39 °F 69% 29.73 in 16 mi SW 3.5 mph - -   Partly Cloudy
6:20 PM 46.4 °F - 41.0 °F 81% 29.74 in 6.2 mi SSW 2.3 mph - N/A   Scattered Clouds
7:00 PM 45 °F - 39 °F 74% 29.76 in 11 mi SSW 4.6 mph - -   Scattered Clouds
8:00 PM 43 °F - 38 °F 77% 29.78 in 12 mi SW 6.9 mph - -   Mostly Cloudy
9:00 PM 43 °F - 37 °F 74% 29.81 in 14 mi WSW 10.4 mph - -   Partly Cloudy
10:00 PM 42 °F - 38 °F 79% 29.83 in 10 mi WSW 10.4 mph - -   Mostly Cloudy
11:00 PM 42 °F - 37 °F 78% 29.85 in 12 mi WSW 9.2 mph - -   Overcast